Location: Newark
(13.8117°N, 3.6025°W)
Time: 18:03:24
(UTC+00:00)

Explorer 11/Cluster Stage 4 - Pass Details

Date: 01 September 2019
Orbit: 467 x 1260 km, 28.8° (Epoch: 23 September)

Event Time Altitude Azimuth Distance (km) Brightness Sun altitude
Rises 15:11:56 0° 275° (W) 4,198 11.0 46.2°
Reaches altitude 10° 15:15:40 10° 262° (W) 3,210 10.7 45.3°
Maximum altitude 15:21:35 22° 215° (SW) 2,325 9.7 43.8°
Drops below altitude 10° 15:27:07 10° 167° (SSE) 2,953 9.5 42.5°
Sets 15:30:24 0° 152° (SSE) 3,782 9.9 41.7°
